Flag for Canada Weather for the Past 2 Weeks in Happy Valley-Goose Bay, Newfoundland and Labrador, Canada

Now
3 °F

Broken clouds.


Feels Like: -18 °F
Forecast: N/A
Wind: 20 mph from West

Location: Goose

Current Time: Feb 12, 2016 at 6:37:00 PM

Latest Report: Feb 12, 2016 at 5:00 PM


Visibility: 15 mi

Pressure: 29.56 "Hg

Humidity: 72%

Dew point: -4 °F

Location of Happy Valley-Goose BayLocation

Historic Weather in Happy Valley-Goose Bay — Graph

°F

Happy Valley-Goose Bay Temperature Yesterday

Maximum temperature yesterday: 23 °F (at 10:00 AM)
Minimum temperature yesterday: 16 °F (at 11:00 PM)
Average temperature yesterday: 21 °F

High & Low Weather Summary for the Past Weeks

 TemperatureHumidityPressure
High28 °F (Feb 1, 9:00 AM)80% (Feb 1, 2:00 PM)30.45 "Hg (Feb 1, 2:00 PM)
Low-24 °F (Feb 9, 5:00 AM)36% (Jan 28, 5:00 PM)29.11 "Hg (Feb 1, 10:00 PM)
Average1 °F60%29.85 "Hg
* Reported Jan 28 5:00 PM — Feb 12 5:00 PM, Happy Valley-Goose Bay, Weather by CustomWeather, © 2016

Note: Actual official high and low records may vary slightly from our data, if they occured in-between our weather recording intervals... More about our weather records

Advertising

Happy Valley-Goose Bay Weather History for the Previous 24 Hours

 ConditionsComfort  
Time TempWeatherWind HumidityBarometerVisibility
5:00 PM
Fri, Feb 12
3 °FBroken clouds.20 mph72%29.56 "Hg15 mi
4:00 PM5 °FBroken clouds.24 mph72%29.54 "Hg15 mi
3:00 PM7 °FPartly sunny.24 mph72%29.51 "Hg15 mi
2:00 PM7 °FPartly sunny.26 mph72%29.49 "Hg15 mi
1:00 PM7 °FPartly sunny.24 mph72%29.48 "Hg15 mi
12:00 PM7 °FPartly sunny.22 mph72%29.48 "Hg15 mi
11:00 AM7 °FPartly sunny.24 mph72%29.48 "Hg15 mi
10:00 AM7 °FBroken clouds.17 mph66%29.47 "Hg15 mi
9:00 AM5 °FScattered flurries. Partly sunny.22 mph72%29.45 "Hg12 mi
8:55 AM5 °FScattered flurries. Partly sunny.21 mph72%29.45 "Hg12 mi
8:00 AM5 °FBroken clouds.24 mph72%29.44 "Hg12 mi
7:00 AM7 °FLight snow. Overcast.23 mph66%29.41 "Hg6 mi
6:00 AM9 °FLight snow. Overcast.20 mph66%29.39 "Hg6 mi
5:50 AM9 °FLight snow. Mostly cloudy.22 mph72%29.39 "Hg6 mi
5:00 AM10 °FLight snow. Mostly cloudy.18 mph72%29.38 "Hg4 mi
4:00 AM12 °FLight snow. Overcast.18 mph73%29.35 "Hg5 mi
3:47 AM14 °FLight snow. Overcast.17 mph67%29.35 "Hg6 mi
3:00 AM16 °FLight snow. Overcast.12 mph67%29.34 "Hg3 mi
2:54 AM16 °FLight snow. Mostly cloudy.12 mph67%29.34 "Hg3 mi
2:00 AM16 °FLight snow. Overcast.13 mph67%29.32 "Hg10 mi
1:00 AM16 °FLight snow. Mostly cloudy.15 mph73%29.31 "Hg6 mi
12:50 AM16 °FLight snow. Mostly cloudy.15 mph73%29.31 "Hg6 mi
12:00 AM18 °FLight snow. Mostly cloudy.15 mph68%29.30 "Hg8 mi
11:00 PM
Thu, Feb 11
16 °FLight snow. Mostly cloudy.18 mph73%29.29 "Hg10 mi
10:00 PM18 °FLight snow. Mostly cloudy.18 mph68%29.29 "Hg6 mi
9:00 PM18 °FLight snow. Overcast.18 mph68%29.29 "Hg10 mi
8:00 PM18 °FLight snow. Overcast.18 mph73%29.28 "Hg8 mi
7:00 PM19 °FLight snow. Mostly cloudy.21 mph68%29.28 "Hg6 mi
6:00 PM19 °FLight snow. Mostly cloudy.16 mph73%29.28 "Hg6 mi
Weather by CustomWeather, © 2016

See weather overviewHow to use our weather pages